Year,Month,Day,Hour,Minute,Value (Times are PST for temperature in C)
2017,04,20,00,00,9.80
2017,04,20,00,01,9.80
2017,04,20,00,02,9.80
2017,04,20,00,03,9.80
2017,04,20,00,04,9.80
2017,04,20,00,05,9.80
2017,04,20,00,06,9.80
2017,04,20,00,07,9.70
2017,04,20,00,08,9.70
2017,04,20,00,09,9.70
2017,04,20,00,10,9.70
2017,04,20,00,11,9.70
2017,04,20,00,12,9.70
2017,04,20,00,13,9.70
2017,04,20,00,14,9.70
2017,04,20,00,15,9.70
2017,04,20,00,16,9.70
2017,04,20,00,17,9.70
2017,04,20,00,18,9.70
2017,04,20,00,19,9.70
2017,04,20,00,20,9.70
2017,04,20,00,21,9.70
2017,04,20,00,23,9.70
2017,04,20,00,24,9.70
2017,04,20,00,26,9.70
2017,04,20,00,27,9.70
2017,04,20,00,28,9.70
2017,04,20,00,29,9.70
2017,04,20,00,31,9.60
2017,04,20,00,32,9.60
2017,04,20,00,33,9.60
2017,04,20,00,34,9.60
2017,04,20,00,36,9.60
2017,04,20,00,37,9.60
2017,04,20,00,38,9.60
2017,04,20,00,39,9.60
2017,04,20,00,41,9.60
2017,04,20,00,42,9.60
2017,04,20,00,43,9.60
2017,04,20,00,44,9.60
2017,04,20,00,46,9.60
2017,04,20,00,47,9.60
2017,04,20,00,48,9.60
2017,04,20,00,49,9.60
2017,04,20,00,51,9.60
2017,04,20,00,52,9.60
2017,04,20,00,53,9.60
2017,04,20,00,54,9.60
2017,04,20,00,56,9.70
2017,04,20,00,57,9.70
2017,04,20,00,58,9.70
2017,04,20,00,59,9.70
2017,04,20,01,01,9.70
2017,04,20,01,02,9.70
2017,04,20,01,03,9.70
2017,04,20,01,04,9.70
2017,04,20,01,06,9.70
2017,04,20,01,07,9.70
2017,04,20,01,08,9.70
2017,04,20,01,09,9.70
2017,04,20,01,11,9.70
2017,04,20,01,12,9.70
2017,04,20,01,13,9.70
2017,04,20,01,14,9.70
2017,04,20,01,16,9.70
2017,04,20,01,17,9.70
2017,04,20,01,18,9.70
2017,04,20,01,19,9.70
2017,04,20,01,21,9.70
2017,04,20,01,22,9.70
2017,04,20,01,23,9.70
2017,04,20,01,24,9.70
2017,04,20,01,26,9.70
2017,04,20,01,27,9.70
2017,04,20,01,28,9.70
2017,04,20,01,29,9.70
2017,04,20,01,31,9.70
2017,04,20,01,32,9.70
2017,04,20,01,33,9.70
2017,04,20,01,34,9.70
2017,04,20,01,36,9.70
2017,04,20,01,37,9.70
2017,04,20,01,38,9.70
2017,04,20,01,39,9.70
2017,04,20,01,41,9.70
2017,04,20,01,42,9.70
2017,04,20,01,43,9.70
2017,04,20,01,44,9.70
2017,04,20,01,46,9.60
2017,04,20,01,47,9.60
2017,04,20,01,48,9.60
2017,04,20,01,49,9.60
2017,04,20,01,51,9.60
2017,04,20,01,52,9.60
2017,04,20,01,53,9.60
2017,04,20,01,54,9.60
2017,04,20,01,55,9.60
2017,04,20,01,56,9.60
2017,04,20,01,57,9.60
2017,04,20,01,58,9.60
2017,04,20,01,59,9.60
2017,04,20,02,00,9.60
2017,04,20,02,01,9.60
2017,04,20,02,02,9.60
2017,04,20,02,03,9.60
2017,04,20,02,04,9.60
2017,04,20,02,05,9.60
2017,04,20,02,06,9.60
2017,04,20,02,07,9.60
2017,04,20,02,08,9.60
2017,04,20,02,09,9.60
2017,04,20,02,10,9.60
2017,04,20,02,11,9.60
2017,04,20,02,12,9.60
2017,04,20,02,13,9.60
2017,04,20,02,14,9.50
2017,04,20,02,15,9.50
2017,04,20,02,16,9.50
2017,04,20,02,17,9.50
2017,04,20,02,18,9.50
2017,04,20,02,19,9.50
2017,04,20,02,20,9.50
2017,04,20,02,21,9.50
2017,04,20,02,22,9.50
2017,04,20,02,23,9.50
2017,04,20,02,24,9.50
2017,04,20,02,25,9.50
2017,04,20,02,26,9.50
2017,04,20,02,27,9.50
2017,04,20,02,28,9.50
2017,04,20,02,29,9.50
2017,04,20,02,30,9.50
2017,04,20,02,31,9.50
2017,04,20,02,32,9.50
2017,04,20,02,33,9.50
2017,04,20,02,34,9.50
2017,04,20,02,35,9.50
2017,04,20,02,36,9.50
2017,04,20,02,37,9.50
2017,04,20,02,38,9.50
2017,04,20,02,39,9.50
2017,04,20,02,40,9.50
2017,04,20,02,41,9.50
2017,04,20,02,42,9.40
2017,04,20,02,43,9.40
2017,04,20,02,44,9.40
2017,04,20,02,45,9.40
2017,04,20,02,46,9.40
2017,04,20,02,47,9.40
2017,04,20,02,48,9.40
2017,04,20,02,49,9.40
2017,04,20,02,50,9.40
2017,04,20,02,51,9.40
2017,04,20,02,52,9.40
2017,04,20,02,53,9.40
2017,04,20,02,54,9.30
2017,04,20,02,55,9.30
2017,04,20,02,56,9.30
2017,04,20,02,57,9.30
2017,04,20,02,58,9.30
2017,04,20,02,59,9.30
2017,04,20,03,00,9.30
2017,04,20,03,02,9.30
2017,04,20,03,03,9.20
2017,04,20,03,04,9.20
2017,04,20,03,06,9.20
2017,04,20,03,07,9.20
2017,04,20,03,08,9.20
2017,04,20,03,09,9.20
2017,04,20,03,11,9.20
2017,04,20,03,12,9.20
2017,04,20,03,13,9.20
2017,04,20,03,14,9.20
2017,04,20,03,16,9.20
2017,04,20,03,17,9.20
2017,04,20,03,18,9.20
2017,04,20,03,19,9.20
2017,04,20,03,21,9.20
2017,04,20,03,22,9.20
2017,04,20,03,23,9.20
2017,04,20,03,24,9.20
2017,04,20,03,26,9.20
2017,04,20,03,27,9.20
2017,04,20,03,28,9.20
2017,04,20,03,29,9.20
2017,04,20,03,31,9.20
2017,04,20,03,32,9.20
2017,04,20,03,33,9.20
2017,04,20,03,34,9.20
2017,04,20,03,36,9.20
2017,04,20,03,37,9.20
2017,04,20,03,38,9.20
2017,04,20,03,39,9.20
2017,04,20,03,41,9.20
2017,04,20,03,42,9.20
2017,04,20,03,43,9.20
2017,04,20,03,44,9.20
2017,04,20,03,46,9.20
2017,04,20,03,47,9.20
2017,04,20,03,48,9.20
2017,04,20,03,49,9.20
2017,04,20,03,51,9.20
2017,04,20,03,52,9.20
2017,04,20,03,53,9.20
2017,04,20,03,54,9.20
2017,04,20,03,56,9.20
2017,04,20,03,57,9.20
2017,04,20,03,58,9.20
2017,04,20,03,59,9.20
2017,04,20,04,01,9.20
2017,04,20,04,02,9.20
2017,04,20,04,03,9.20
2017,04,20,04,04,9.10
2017,04,20,04,06,9.10
2017,04,20,04,07,9.10
2017,04,20,04,08,9.10
2017,04,20,04,09,9.10
2017,04,20,04,11,9.10
2017,04,20,04,12,9.10
2017,04,20,04,13,9.10
2017,04,20,04,14,9.10
2017,04,20,04,16,9.10
2017,04,20,04,17,9.10
2017,04,20,04,18,9.10
2017,04,20,04,19,9.10
2017,04,20,04,21,9.20
2017,04,20,04,22,9.20
2017,04,20,04,23,9.20
2017,04,20,04,24,9.20
2017,04,20,04,25,9.20
2017,04,20,04,26,9.20
2017,04,20,04,27,9.20
2017,04,20,04,28,9.20
2017,04,20,04,29,9.20
2017,04,20,04,30,9.20
2017,04,20,04,31,9.20
2017,04,20,04,32,9.20
2017,04,20,04,33,9.20
2017,04,20,04,34,9.20
2017,04,20,04,35,9.20
2017,04,20,04,36,9.20
2017,04,20,04,37,9.20
2017,04,20,04,38,9.20
2017,04,20,04,39,9.20
2017,04,20,04,40,9.20
2017,04,20,04,41,9.20
2017,04,20,04,42,9.20
2017,04,20,04,43,9.20
2017,04,20,04,44,9.20
2017,04,20,04,45,9.20
2017,04,20,04,46,9.20
2017,04,20,04,47,9.20
2017,04,20,04,48,9.20
2017,04,20,04,49,9.20
2017,04,20,04,50,9.20
2017,04,20,04,51,9.20
2017,04,20,04,52,9.20
2017,04,20,04,53,9.20
2017,04,20,04,54,9.20
2017,04,20,04,55,9.10
2017,04,20,04,56,9.10
2017,04,20,04,57,9.10
2017,04,20,04,58,9.10
2017,04,20,04,59,9.10
2017,04,20,05,00,9.10
2017,04,20,05,01,9.10
2017,04,20,05,02,9.10
2017,04,20,05,03,9.10
2017,04,20,05,04,9.20
2017,04,20,05,05,9.20
2017,04,20,05,06,9.20
2017,04,20,05,07,9.20
2017,04,20,05,08,9.20
2017,04,20,05,09,9.20
2017,04,20,05,10,9.20
2017,04,20,05,11,9.20
2017,04,20,05,12,9.20
2017,04,20,05,13,9.20
2017,04,20,05,14,9.20
2017,04,20,05,15,9.20
2017,04,20,05,16,9.20
2017,04,20,05,17,9.20
2017,04,20,05,18,9.20
2017,04,20,05,19,9.20
2017,04,20,05,20,9.20
2017,04,20,05,21,9.20
2017,04,20,05,22,9.20
2017,04,20,05,23,9.20
2017,04,20,05,24,9.20
2017,04,20,05,25,9.20
2017,04,20,05,26,9.20
2017,04,20,05,27,9.20
2017,04,20,05,28,9.20
2017,04,20,05,29,9.20
2017,04,20,05,30,9.20
2017,04,20,05,31,9.20
2017,04,20,05,32,9.20
2017,04,20,05,33,9.20
2017,04,20,05,34,9.20
2017,04,20,05,35,9.20
2017,04,20,05,37,9.20
2017,04,20,05,38,9.20
2017,04,20,05,39,9.20
2017,04,20,05,41,9.20
2017,04,20,05,42,9.20
2017,04,20,05,43,9.20
2017,04,20,05,44,9.20
2017,04,20,05,46,9.20
2017,04,20,05,47,9.20
2017,04,20,05,48,9.20
2017,04,20,05,49,9.20
2017,04,20,05,51,9.20
2017,04,20,05,52,9.20
2017,04,20,05,53,9.20
2017,04,20,05,54,9.20
2017,04,20,05,56,9.20
2017,04,20,05,57,9.20
2017,04,20,05,58,9.10
2017,04,20,05,59,9.10
2017,04,20,06,01,9.10
2017,04,20,06,02,9.10
2017,04,20,06,03,9.10
2017,04,20,06,04,9.10
2017,04,20,06,06,9.10
2017,04,20,06,07,9.10
2017,04,20,06,08,9.10
2017,04,20,06,09,9.10
2017,04,20,06,11,9.10
2017,04,20,06,12,9.00
2017,04,20,06,13,9.00
2017,04,20,06,14,9.00
2017,04,20,06,16,9.00
2017,04,20,06,17,9.00
2017,04,20,06,18,9.00
2017,04,20,06,19,9.00
2017,04,20,06,21,9.00
2017,04,20,06,22,9.00
2017,04,20,06,23,9.10
2017,04,20,06,24,9.10
2017,04,20,06,26,9.10
2017,04,20,06,27,9.10
2017,04,20,06,28,9.10
2017,04,20,06,29,9.10
2017,04,20,06,31,9.10
2017,04,20,06,32,9.10
2017,04,20,06,33,9.10
2017,04,20,06,34,9.10
2017,04,20,06,36,9.10
2017,04,20,06,37,9.10
2017,04,20,06,38,9.10
2017,04,20,06,39,9.10
2017,04,20,06,41,9.20
2017,04,20,06,42,9.20
2017,04,20,06,43,9.20
2017,04,20,06,44,9.20
2017,04,20,06,46,9.20
2017,04,20,06,47,9.20
2017,04,20,06,48,9.20
2017,04,20,06,49,9.20
2017,04,20,06,51,9.20
2017,04,20,06,52,9.10
2017,04,20,06,53,9.10
2017,04,20,06,54,9.10
2017,04,20,06,56,9.10
2017,04,20,06,57,9.10
2017,04,20,06,58,9.10
2017,04,20,06,59,9.10
2017,04,20,07,00,9.10
2017,04,20,07,01,9.10
2017,04,20,07,02,9.10
2017,04,20,07,03,9.10
2017,04,20,07,04,9.10
2017,04,20,07,06,9.10
2017,04,20,07,07,9.10
2017,04,20,07,08,9.10
2017,04,20,07,09,9.10
2017,04,20,07,10,9.10
2017,04,20,07,11,9.10
2017,04,20,07,12,9.10
2017,04,20,07,13,9.10
2017,04,20,07,14,9.10
2017,04,20,07,15,9.20
2017,04,20,07,16,9.20
2017,04,20,07,17,9.20
2017,04,20,07,18,9.20
2017,04,20,07,19,9.20
2017,04,20,07,20,9.20
2017,04,20,07,21,9.20
2017,04,20,07,22,9.20
2017,04,20,07,23,9.20
2017,04,20,07,24,9.20
2017,04,20,07,25,9.30
2017,04,20,07,26,9.30
2017,04,20,07,27,9.30
2017,04,20,07,28,9.30
2017,04,20,07,29,9.40
2017,04,20,07,30,9.40
2017,04,20,07,31,9.40
2017,04,20,07,32,9.50
2017,04,20,07,33,9.50
2017,04,20,07,34,9.50
2017,04,20,07,35,9.60
2017,04,20,07,36,9.60
2017,04,20,07,37,9.60
2017,04,20,07,38,9.60
2017,04,20,07,39,9.60
2017,04,20,07,40,9.70
2017,04,20,07,41,9.70
2017,04,20,07,42,9.70
2017,04,20,07,43,9.70
2017,04,20,07,44,9.70
2017,04,20,07,45,9.70
2017,04,20,07,46,9.70
2017,04,20,07,47,9.70
2017,04,20,07,48,9.70
2017,04,20,07,49,9.70
2017,04,20,07,50,9.70
2017,04,20,07,51,9.70
2017,04,20,07,52,9.70
2017,04,20,07,53,9.70
2017,04,20,07,54,9.70
2017,04,20,07,55,9.80
2017,04,20,07,56,9.80
2017,04,20,07,57,9.80
2017,04,20,07,58,9.90
2017,04,20,07,59,9.90
2017,04,20,08,00,9.90
2017,04,20,08,01,9.90
2017,04,20,08,02,9.90
2017,04,20,08,03,9.90
2017,04,20,08,04,10.10
2017,04,20,08,05,10.10
2017,04,20,08,06,10.10
2017,04,20,08,07,10.10
2017,04,20,08,08,10.10
2017,04,20,08,09,9.90
2017,04,20,08,10,9.90
2017,04,20,08,11,9.90
2017,04,20,08,12,9.90
2017,04,20,08,13,10.10
2017,04,20,08,14,10.10
2017,04,20,08,15,10.20
2017,04,20,08,17,10.30
2017,04,20,08,18,10.40
2017,04,20,08,19,10.40
2017,04,20,08,21,10.60
2017,04,20,08,22,10.60
2017,04,20,08,23,10.70
2017,04,20,08,24,10.70
2017,04,20,08,26,10.80
2017,04,20,08,27,10.90
2017,04,20,08,28,10.80
2017,04,20,08,29,10.80
2017,04,20,08,31,10.80
2017,04,20,08,32,10.80
2017,04,20,08,33,10.80
2017,04,20,08,34,10.90
2017,04,20,08,36,10.90
2017,04,20,08,37,10.80
2017,04,20,08,38,10.80
2017,04,20,08,39,10.70
2017,04,20,08,41,10.80
2017,04,20,08,42,10.80
2017,04,20,08,43,10.90
2017,04,20,08,44,10.90
2017,04,20,08,46,10.70
2017,04,20,08,47,10.70
2017,04,20,08,48,10.60
2017,04,20,08,49,10.40
2017,04,20,08,51,10.40
2017,04,20,08,52,10.30
2017,04,20,08,53,10.30
2017,04,20,08,54,10.20
2017,04,20,08,56,10.20
2017,04,20,08,57,10.20
2017,04,20,08,58,10.20
2017,04,20,08,59,10.10
2017,04,20,09,01,10.10
2017,04,20,09,02,10.10
2017,04,20,09,03,10.10
2017,04,20,09,04,10.10
2017,04,20,09,06,10.10
2017,04,20,09,07,10.10
2017,04,20,09,08,10.20
2017,04,20,09,09,10.20
2017,04,20,09,11,10.20
2017,04,20,09,12,10.30
2017,04,20,09,13,10.30
2017,04,20,09,14,10.30
2017,04,20,09,16,10.30
2017,04,20,09,17,10.30
2017,04,20,09,18,10.40
2017,04,20,09,19,10.40
2017,04,20,09,21,10.40
2017,04,20,09,22,10.40
2017,04,20,09,23,10.40
2017,04,20,09,24,10.40
2017,04,20,09,26,10.30
2017,04,20,09,27,10.30
2017,04,20,09,28,10.30
2017,04,20,09,29,10.30
2017,04,20,09,31,10.30
2017,04,20,09,32,10.30
2017,04,20,09,33,10.40
2017,04,20,09,34,10.40
2017,04,20,09,36,10.40
2017,04,20,09,37,10.40
2017,04,20,09,38,10.40
2017,04,20,09,39,10.40
2017,04,20,09,41,10.30
2017,04,20,09,42,10.30
2017,04,20,09,43,10.30
2017,04,20,09,44,10.30
2017,04,20,09,45,10.30
2017,04,20,09,46,10.20
2017,04,20,09,47,10.20
2017,04,20,09,48,10.20
2017,04,20,09,49,10.20
2017,04,20,09,50,10.20
2017,04,20,09,51,10.10
2017,04,20,09,52,10.10
2017,04,20,09,53,10.10
2017,04,20,09,54,10.10
2017,04,20,09,55,10.10
2017,04,20,09,56,10.10
2017,04,20,09,57,10.10
2017,04,20,09,58,10.10
2017,04,20,09,59,10.10
2017,04,20,10,00,10.10
2017,04,20,10,01,10.10
2017,04,20,10,02,10.10
2017,04,20,10,03,10.10
2017,04,20,10,04,10.10
2017,04,20,10,05,10.10
2017,04,20,10,06,10.10
2017,04,20,10,07,10.10
2017,04,20,10,08,9.90
2017,04,20,10,09,9.90
2017,04,20,10,10,9.90
2017,04,20,10,11,9.90
2017,04,20,10,12,9.90
2017,04,20,10,13,9.90
2017,04,20,10,14,9.90
2017,04,20,10,15,9.90
2017,04,20,10,16,9.90
2017,04,20,10,17,9.90
2017,04,20,10,18,9.90
2017,04,20,10,19,10.10
2017,04,20,10,20,10.10
2017,04,20,10,21,10.10
2017,04,20,10,22,10.10
2017,04,20,10,23,10.10
2017,04,20,10,24,10.10
2017,04,20,10,25,10.10
2017,04,20,10,26,10.10
2017,04,20,10,27,10.10
2017,04,20,10,28,10.10
2017,04,20,10,29,10.10
2017,04,20,10,30,10.10
2017,04,20,10,31,10.20
2017,04,20,10,32,10.20
2017,04,20,10,33,10.20
2017,04,20,10,34,10.20
2017,04,20,10,35,10.20
2017,04,20,10,36,10.20
2017,04,20,10,37,10.20
2017,04,20,10,38,10.20
2017,04,20,10,39,10.30
2017,04,20,10,40,10.30
2017,04,20,10,41,10.30
2017,04,20,10,42,10.30
2017,04,20,10,43,10.30
2017,04,20,10,44,10.40
2017,04,20,10,45,10.40
2017,04,20,10,46,10.40
2017,04,20,10,47,10.40
2017,04,20,10,48,10.40
2017,04,20,10,49,10.40
2017,04,20,10,50,10.40
2017,04,20,10,51,10.40
2017,04,20,10,52,10.40
2017,04,20,10,53,10.40
2017,04,20,10,54,10.40
2017,04,20,10,55,10.40
2017,04,20,10,56,10.40
2017,04,20,10,57,10.40
2017,04,20,10,58,10.60
2017,04,20,10,59,10.60
2017,04,20,11,00,10.60
2017,04,20,11,01,10.60
2017,04,20,11,02,10.60
2017,04,20,11,03,10.60
2017,04,20,11,04,10.60
2017,04,20,11,05,10.60
2017,04,20,11,06,10.60
2017,04,20,11,08,10.60
2017,04,20,11,09,10.60
2017,04,20,11,11,10.60
2017,04,20,11,12,10.60
2017,04,20,11,13,10.60
2017,04,20,11,14,10.60
2017,04,20,11,16,10.70
2017,04,20,11,17,10.70
2017,04,20,11,18,10.70
2017,04,20,11,19,10.80
2017,04,20,11,21,10.80
2017,04,20,11,22,10.80
2017,04,20,11,23,10.90
2017,04,20,11,24,10.90
2017,04,20,11,26,10.90
2017,04,20,11,27,10.90
2017,04,20,11,28,10.90
2017,04,20,11,29,10.90
2017,04,20,11,31,10.90
2017,04,20,11,32,10.90
2017,04,20,11,33,11.10
2017,04,20,11,34,11.10
2017,04,20,11,36,11.20
2017,04,20,11,37,11.30
2017,04,20,11,38,11.40
2017,04,20,11,39,11.40
2017,04,20,11,41,11.60
2017,04,20,11,42,11.60
2017,04,20,11,43,11.70
2017,04,20,11,44,11.70
2017,04,20,11,46,11.70
2017,04,20,11,47,11.80
2017,04,20,11,48,11.80
2017,04,20,11,49,11.80
2017,04,20,12,26,12.30
2017,04,20,12,27,12.30
2017,04,20,12,28,12.30
2017,04,20,12,29,12.30
2017,04,20,12,30,12.20
2017,04,20,12,31,12.20
2017,04,20,12,32,12.20
2017,04,20,12,33,12.20
2017,04,20,12,34,12.20
2017,04,20,12,35,12.20
2017,04,20,12,36,12.20
2017,04,20,12,37,12.20
2017,04,20,12,38,12.20
2017,04,20,12,39,12.10
2017,04,20,12,40,12.20
2017,04,20,12,41,12.20
2017,04,20,12,42,12.20
2017,04,20,12,43,12.20
2017,04,20,12,44,12.20
2017,04,20,12,45,12.20
2017,04,20,12,46,12.20
2017,04,20,12,47,12.20
2017,04,20,12,48,12.20
2017,04,20,12,49,12.20
2017,04,20,12,50,12.20
2017,04,20,12,51,12.30
2017,04,20,12,52,12.30
2017,04,20,12,53,12.30
2017,04,20,12,54,12.30
2017,04,20,12,55,12.30
2017,04,20,12,56,12.30
2017,04,20,12,57,12.30
2017,04,20,12,58,12.30
2017,04,20,12,59,12.30
2017,04,20,13,00,12.30
2017,04,20,13,01,12.30
2017,04,20,13,02,12.30
2017,04,20,13,03,12.30
2017,04,20,13,04,12.30
2017,04,20,13,05,12.30
2017,04,20,13,06,12.40
2017,04,20,13,07,12.40
2017,04,20,13,08,12.40
2017,04,20,13,09,12.50
2017,04,20,13,10,12.50
2017,04,20,13,11,12.50
2017,04,20,13,12,12.50
2017,04,20,13,13,12.50
2017,04,20,13,14,12.50
2017,04,20,13,15,12.50
2017,04,20,13,16,12.50
2017,04,20,13,17,12.50
2017,04,20,13,18,12.60
2017,04,20,13,19,12.60
2017,04,20,13,21,12.70
2017,04,20,13,22,12.80
2017,04,20,13,23,12.80
2017,04,20,13,24,12.80
2017,04,20,13,26,12.90
2017,04,20,13,27,12.90
2017,04,20,13,28,13.00
2017,04,20,13,29,13.00
2017,04,20,13,31,13.10
2017,04,20,13,32,13.10
2017,04,20,13,33,13.10
2017,04,20,13,34,13.10
2017,04,20,13,36,13.00
2017,04,20,13,37,12.90
2017,04,20,13,38,12.90
2017,04,20,13,39,12.80
2017,04,20,13,41,12.80
2017,04,20,13,42,12.80
2017,04,20,13,43,12.70
2017,04,20,13,44,12.70
2017,04,20,13,46,12.70
2017,04,20,13,47,12.60
2017,04,20,13,48,12.60
2017,04,20,13,49,12.50
2017,04,20,13,51,12.50
2017,04,20,13,52,12.50
2017,04,20,13,53,12.50
2017,04,20,13,54,12.50
2017,04,20,13,56,12.60
2017,04,20,13,57,12.60
2017,04,20,13,58,12.60
2017,04,20,13,59,12.60
2017,04,20,14,01,12.60
2017,04,20,14,02,12.60
2017,04,20,14,03,12.60
2017,04,20,14,04,12.60
2017,04,20,14,06,12.70
2017,04,20,14,07,12.70
2017,04,20,14,08,12.80
2017,04,20,14,09,12.80
2017,04,20,14,11,12.80
2017,04,20,14,12,12.80
2017,04,20,14,13,12.90
2017,04,20,14,14,13.00
2017,04,20,14,16,13.10
2017,04,20,14,17,13.10
2017,04,20,14,18,13.20
2017,04,20,14,19,13.20
2017,04,20,14,21,13.30
2017,04,20,14,22,13.30
2017,04,20,14,23,13.30
2017,04,20,14,24,13.30
2017,04,20,14,26,13.40
2017,04,20,15,26,14.60
2017,04,20,15,27,14.60
2017,04,20,15,28,14.60
2017,04,20,15,29,14.70
2017,04,20,15,30,14.70
2017,04,20,15,31,14.70
2017,04,20,15,32,14.80
2017,04,20,15,33,14.80
2017,04,20,15,34,14.70
2017,04,20,15,35,14.70
2017,04,20,15,36,14.60
2017,04,20,15,37,14.60
2017,04,20,15,38,14.50
2017,04,20,15,39,14.50
2017,04,20,15,40,14.50
2017,04,20,15,41,14.40
2017,04,20,15,42,14.40
2017,04,20,15,43,14.30
2017,04,20,15,44,14.20
2017,04,20,15,45,14.20
2017,04,20,15,46,14.20
2017,04,20,15,47,14.20
2017,04,20,15,48,14.20
2017,04,20,15,49,14.20
2017,04,20,15,50,14.20
2017,04,20,15,51,14.20
2017,04,20,15,52,14.20
2017,04,20,15,53,14.20
2017,04,20,15,54,14.20
2017,04,20,15,55,14.20
2017,04,20,15,56,14.30
2017,04,20,15,57,14.30
2017,04,20,15,58,14.30
2017,04,20,15,59,14.40
2017,04,20,16,00,14.40
2017,04,20,16,01,14.40
2017,04,20,16,02,14.50
2017,04,20,16,03,14.50
2017,04,20,16,04,14.50
2017,04,20,16,05,14.50
2017,04,20,16,06,14.50
2017,04,20,16,07,14.50
2017,04,20,16,08,14.40
2017,04,20,16,09,14.40
2017,04,20,16,10,14.30
2017,04,20,16,11,14.20
2017,04,20,16,12,14.20
2017,04,20,16,13,14.10
2017,04,20,16,14,14.00
2017,04,20,16,15,13.90
2017,04,20,16,16,13.90
2017,04,20,16,17,13.90
2017,04,20,16,18,13.80
2017,04,20,16,19,13.70
2017,04,20,16,20,13.70
2017,04,20,16,21,13.70
2017,04,20,16,22,13.70
2017,04,20,16,23,13.70
2017,04,20,16,24,13.70
2017,04,20,16,26,13.60
2017,04,20,16,27,13.60
2017,04,20,16,28,13.60
2017,04,20,16,29,13.60
2017,04,20,16,31,13.60
2017,04,20,16,32,13.60
2017,04,20,16,33,13.70
2017,04,20,16,34,13.70
2017,04,20,16,36,13.70
2017,04,20,16,37,13.70
2017,04,20,16,38,13.70
2017,04,20,16,39,13.70
2017,04,20,16,41,13.80
2017,04,20,16,42,13.80
2017,04,20,16,43,13.70
2017,04,20,16,44,13.70
2017,04,20,16,46,13.70
2017,04,20,16,47,13.70
2017,04,20,16,48,13.60
2017,04,20,16,49,13.60
2017,04,20,16,51,13.50
2017,04,20,16,52,13.50
2017,04,20,16,53,13.50
2017,04,20,16,54,13.50
2017,04,20,16,56,13.50
2017,04,20,16,57,13.50
2017,04,20,16,58,13.50
2017,04,20,16,59,13.40
2017,04,20,17,01,13.30
2017,04,20,17,02,13.30
2017,04,20,17,03,13.30
2017,04,20,17,04,13.30
2017,04,20,17,06,13.30
2017,04,20,17,07,13.20
2017,04,20,17,08,13.20
2017,04,20,17,09,13.20
2017,04,20,17,11,13.10
2017,04,20,17,12,13.10
2017,04,20,17,13,13.00
2017,04,20,17,14,12.90
2017,04,20,17,16,12.80
2017,04,20,17,17,12.80
2017,04,20,17,18,12.80
2017,04,20,17,19,12.80
2017,04,20,17,21,12.80
2017,04,20,17,22,12.80
2017,04,20,17,23,12.80
2017,04,20,17,24,12.70
2017,04,20,17,26,12.70
2017,04,20,17,27,12.60
2017,04,20,17,28,12.50
2017,04,20,17,29,12.40
2017,04,20,17,31,12.40
2017,04,20,17,32,12.30
2017,04,20,17,33,12.40
2017,04,20,17,34,12.40
2017,04,20,17,36,12.40
2017,04,20,17,37,12.40
2017,04,20,17,38,12.40
2017,04,20,17,39,12.40
2017,04,20,17,41,12.50
2017,04,20,17,42,12.50
2017,04,20,17,43,12.50
2017,04,20,17,44,12.50
2017,04,20,17,46,12.50
2017,04,20,17,47,12.50
2017,04,20,17,48,12.50
2017,04,20,17,49,12.50
2017,04,20,17,51,12.60
2017,04,20,17,52,12.70
2017,04,20,17,53,12.70
2017,04,20,17,54,12.70
2017,04,20,17,56,12.70
2017,04,20,17,57,12.70
2017,04,20,17,58,12.70
2017,04,20,17,59,12.70
2017,04,20,18,00,12.70
2017,04,20,18,01,12.70
2017,04,20,18,02,12.70
2017,04,20,18,03,12.70
2017,04,20,18,04,12.70
2017,04,20,18,06,12.60
2017,04,20,18,07,12.60
2017,04,20,18,08,12.60
2017,04,20,18,09,12.60
2017,04,20,18,10,12.60
2017,04,20,18,11,12.60
2017,04,20,18,12,12.60
2017,04,20,18,13,12.60
2017,04,20,18,14,12.60
2017,04,20,18,15,12.50
2017,04,20,18,16,12.50
2017,04,20,18,17,12.50
2017,04,20,18,18,12.50
2017,04,20,18,19,12.50
2017,04,20,18,20,12.50
2017,04,20,18,21,12.60
2017,04,20,18,22,12.60
2017,04,20,18,23,12.60
2017,04,20,18,24,12.60
2017,04,20,18,25,12.60
2017,04,20,18,26,12.60
2017,04,20,18,27,12.60
2017,04,20,18,28,12.60
2017,04,20,18,29,12.60
2017,04,20,18,30,12.60
2017,04,20,18,31,12.60
2017,04,20,18,32,12.60
2017,04,20,18,33,12.60
2017,04,20,18,34,12.60
2017,04,20,18,35,12.60
2017,04,20,18,36,12.60
2017,04,20,18,37,12.60
2017,04,20,18,38,12.60
2017,04,20,18,39,12.60
2017,04,20,18,40,12.60
2017,04,20,18,41,12.60
2017,04,20,18,42,12.50
2017,04,20,18,43,12.50
2017,04,20,18,44,12.50
2017,04,20,18,45,12.50
2017,04,20,18,46,12.50
2017,04,20,18,47,12.50
2017,04,20,18,48,12.50
2017,04,20,18,49,12.50
2017,04,20,18,50,12.50
2017,04,20,18,51,12.50
2017,04,20,18,52,12.40
2017,04,20,18,53,12.40
2017,04,20,18,54,12.40
2017,04,20,18,55,12.30
2017,04,20,18,56,12.30
2017,04,20,18,57,12.30
2017,04,20,18,58,12.30
2017,04,20,18,59,12.30
2017,04,20,19,00,12.20
2017,04,20,19,01,12.20
2017,04,20,19,02,12.20
2017,04,20,19,03,12.10
2017,04,20,19,04,12.10
2017,04,20,19,05,12.10
2017,04,20,19,06,12.10
2017,04,20,19,07,12.00
2017,04,20,19,08,12.00
2017,04,20,19,09,12.00
2017,04,20,19,10,11.90
2017,04,20,19,11,11.90
2017,04,20,19,13,11.80
2017,04,20,19,14,11.80
2017,04,20,19,16,11.80
2017,04,20,19,17,11.80
2017,04,20,19,18,11.80
2017,04,20,19,19,11.80
2017,04,20,19,21,11.80
2017,04,20,19,22,11.80
2017,04,20,19,23,11.70
2017,04,20,19,24,11.70
2017,04,20,19,26,11.70
2017,04,20,19,27,11.70
2017,04,20,19,28,11.70
2017,04,20,19,29,11.60
2017,04,20,19,31,11.60
2017,04,20,19,32,11.60
2017,04,20,19,33,11.60
2017,04,20,19,34,11.60
2017,04,20,19,36,11.60
2017,04,20,19,37,11.60
2017,04,20,19,38,11.60
2017,04,20,19,39,11.60
2017,04,20,19,41,11.40
2017,04,20,19,42,11.40
2017,04,20,19,43,11.40
2017,04,20,19,44,11.40
2017,04,20,19,46,11.30
2017,04,20,19,47,11.30
2017,04,20,19,48,11.20
2017,04,20,19,49,11.20
2017,04,20,19,51,11.10
2017,04,20,19,52,11.10
2017,04,20,19,53,11.10
2017,04,20,19,54,11.10
2017,04,20,19,56,10.90
2017,04,20,19,57,10.90
2017,04,20,19,58,10.90
2017,04,20,19,59,10.90
2017,04,20,20,01,10.80
2017,04,20,20,02,10.80
2017,04,20,20,03,10.80
2017,04,20,20,04,10.80
2017,04,20,20,06,10.70
2017,04,20,20,07,10.70
2017,04,20,20,08,10.60
2017,04,20,20,09,10.60
2017,04,20,20,11,10.60
2017,04,20,20,12,10.60
2017,04,20,20,13,10.60
2017,04,20,20,14,10.60
2017,04,20,20,16,10.40
2017,04,20,20,17,10.40
2017,04,20,20,18,10.40
2017,04,20,20,19,10.40
2017,04,20,20,21,10.40
2017,04,20,20,22,10.40
2017,04,20,20,23,10.40
2017,04,20,20,24,10.30
2017,04,20,20,26,10.30
2017,04,20,20,27,10.30
2017,04,20,20,28,10.30
2017,04,20,20,29,10.30
2017,04,20,20,31,10.20
2017,04,20,20,32,10.20
2017,04,20,20,33,10.20
2017,04,20,20,34,10.20
2017,04,20,20,36,10.20
2017,04,20,20,37,10.20
2017,04,20,20,38,10.10
2017,04,20,20,39,10.10
2017,04,20,20,41,10.10
2017,04,20,20,42,10.10
2017,04,20,20,43,10.10
2017,04,20,20,44,10.10
2017,04,20,20,45,10.10
2017,04,20,20,46,10.10
2017,04,20,20,47,10.10
2017,04,20,20,48,10.10
2017,04,20,20,49,10.10
2017,04,20,20,50,10.10
2017,04,20,20,51,10.10
2017,04,20,20,52,10.10
2017,04,20,20,53,10.10
2017,04,20,20,54,9.90
2017,04,20,20,55,9.90
2017,04,20,20,56,9.90
2017,04,20,20,57,9.90
2017,04,20,20,58,9.90
2017,04,20,20,59,9.90
2017,04,20,21,00,9.90
2017,04,20,21,01,9.90
2017,04,20,21,02,9.90
2017,04,20,21,03,9.90
2017,04,20,21,04,9.90
2017,04,20,21,05,9.90
2017,04,20,21,06,9.90
2017,04,20,21,07,9.90
2017,04,20,21,08,9.90
2017,04,20,21,09,9.90
2017,04,20,21,10,9.90
2017,04,20,21,11,9.90
2017,04,20,21,12,9.90
2017,04,20,21,13,9.80
2017,04,20,21,14,9.80
2017,04,20,21,15,9.80
2017,04,20,21,16,9.80
2017,04,20,21,17,9.80
2017,04,20,21,18,9.80
2017,04,20,21,19,9.80
2017,04,20,21,20,9.80
2017,04,20,21,21,9.70
2017,04,20,21,22,9.70
2017,04,20,21,23,9.70
2017,04,20,21,24,9.70
2017,04,20,21,25,9.70
2017,04,20,21,26,9.70
2017,04,20,21,27,9.70
2017,04,20,21,28,9.70
2017,04,20,21,29,9.70